Location: Bidart
(43.4376°N, 1.5913°W)
Time: 16:37:17
(UTC+00:00)

NOSS 3-1 (C) - Pass Details

Date: 19 May 2025
Orbit: 632 x 1571 km, 63.4° (Epoch: 02 June)

Event Time Altitude Azimuth Distance (km) Brightness Sun altitude
Rises 22:04:49 0° 237° (WSW) 2,974 6.0 -21.0°
Reaches altitude 10° 22:07:04 10° 244° (WSW) 2,122 5.3 -21.2°
Maximum altitude 22:11:37 43° 316° (NW) 1,059 4.2 -21.6°
Drops below altitude 10° 22:17:04 10° 28° (NNE) 2,546 6.1 -22.1°
Sets 22:20:00 0° 35° (NE) 3,644 6.9 -22.3°
